| time (UTC) | temp F | wind direction | speed knots | gust knots | rain 1hr in | rain 24hr in | rain mn in | humidity % | barometer mb |
| 20260504110705 | 41 | 128 | 0.9 | 1.7 | 0.00 | 0.00 | 0.00 | 84 | 1015.1 |
| 20260504110201 | 40 | 47 | 0.9 | 1.7 | 0.00 | 0.00 | 0.00 | 87 | 1014.8 |
| 20260504100125 | 35 | 75 | 0.0 | 2.6 | 0.00 | 0.00 | 0.00 | 94 | 1014.5 |
| 20260504081518 | 37 | 46 | 0.0 | 1.7 | 0.00 | 0.00 | 0.00 | 89 | 1014.8 |
| 20260504081013 | 37 | 23 | 0.0 | 2.6 | 0.00 | 0.00 | 0.00 | 89 | 1014.8 |
| 20260504080509 | 37 | 345 | 1.7 | 1.7 | 0.00 | 0.00 | 0.00 | 90 | 1014.7 |
| 20260504050317 | 42 | 27 | 0.0 | 1.7 | 0.00 | 0.00 | 0.00 | 81 | 1014.7 |
| 20260504045814 | 42 | 89 | 0.0 | 1.7 | 0.00 | 0.00 | 0.00 | 79 | 1014.8 |
| 20260504045314 | 43 | 44 | 0.9 | 1.7 | 0.00 | 0.00 | 0.00 | 78 | 1014.9 |
| 20260504044812 | 43 | 53 | 0.9 | 1.7 | 0.00 | 0.00 | 0.00 | 75 | 1014.6 |
| 20260504044309 | 43 | 15 | 0.0 | 1.7 | 0.00 | 0.00 | 0.00 | 74 | 1014.7 |
| 20260504043806 | 43 | 288 | 0.0 | 2.6 | 0.00 | 0.00 | 0.00 | 74 | 1014.7 |
| 20260504043303 | 44 | 328 | 0.0 | 2.6 | 0.00 | 0.00 | 0.00 | 73 | 1014.5 |
| 20260504042801 | 44 | 173 | 0.0 | 1.7 | 0.00 | 0.00 | 0.00 | 74 | 1014.5 |
| 20260504042257 | 44 | 58 | 0.0 | 0.9 | 0.00 | 0.00 | 0.00 | 73 | 1014.4 |
| 20260504041753 | 44 | 39 | 0.0 | 1.7 | 0.00 | 0.00 | 0.00 | 71 | 1014.5 |
| 20260504041249 | 45 | 89 | 0.9 | 2.6 | 0.00 | 0.00 | 0.00 | 71 | 1014.4 |
| 20260504040745 | 45 | 142 | 0.0 | 1.7 | 0.00 | 0.00 | 0.00 | 69 | 1014.5 |
| 20260504040243 | 46 | 103 | 0.0 | 2.6 | 0.00 | 0.00 | 0.00 | 66 | 1014.4 |
| 20260504035739 | 46 | 24 | 0.9 | 1.7 | 0.00 | 0.00 | 0.00 | 65 | 1014.3 |
| 20260504035236 | 47 | 185 | 0.9 | 6.1 | 0.00 | 0.00 | 0.00 | 65 | 1014.4 |
| 20260504034734 | 47 | 10 | 0.0 | 2.6 | 0.00 | 0.00 | 0.00 | 64 | 1014.3 |
| 20260504034231 | 47 | 211 | 0.9 | 2.6 | 0.00 | 0.00 | 0.00 | 65 | 1014.4 |
| 20260504033729 | 46 | 30 | 0.9 | 3.5 | 0.00 | 0.00 | 0.00 | 66 | 1014.4 |
| 20260504033226 | 46 | 143 | 1.7 | 2.6 | 0.00 | 0.00 | 0.00 | 67 | 1014.3 |
| 20260504032723 | 46 | 269 | 0.0 | 2.6 | 0.00 | 0.00 | 0.00 | 66 | 1014.3 |
| 20260504032220 | 46 | 335 | 0.0 | 2.6 | 0.00 | 0.00 | 0.00 | 66 | 1014.2 |
| 20260504031716 | 46 | 125 | 0.0 | 2.6 | 0.00 | 0.00 | 0.00 | 67 | 1014.5 |
| 20260504031214 | 45 | 239 | 0.0 | 3.5 | 0.00 | 0.00 | 0.00 | 68 | 1014.5 |
| 20260504030709 | 45 | 323 | 0.9 | 2.6 | 0.00 | 0.00 | 0.00 | 71 | 1014.3 |
| 20260504030207 | 44 | 196 | 1.7 | 2.6 | 0.00 | 0.00 | 0.00 | 73 | 1014.2 |
| 20260504025703 | 44 | 53 | 0.0 | 1.7 | 0.00 | 0.00 | 0.00 | 72 | 1014.4 |
| 20260504025200 | 44 | 304 | 0.0 | 2.6 | 0.00 | 0.00 | 0.00 | 74 | 1014.3 |
| 20260504024657 | 44 | 197 | 0.0 | 1.7 | 0.00 | 0.00 | 0.00 | 74 | 1014.2 |
| 20260504024153 | 44 | 204 | 0.9 | 2.6 | 0.00 | 0.00 | 0.00 | 73 | 1014.3 |
| 20260504023650 | 44 | 352 | 0.0 | 1.7 | 0.00 | 0.00 | 0.00 | 75 | 1014.2 |
| 20260504023146 | 44 | 152 | 0.0 | 1.7 | 0.00 | 0.00 | 0.00 | 75 | 1014.2 |
| 20260504022643 | 44 | 1 | 0.9 | 1.7 | 0.00 | 0.00 | 0.00 | 75 | 1014.2 |
| 20260504022138 | 44 | 44 | 0.9 | 1.7 | 0.00 | 0.00 | 0.00 | 73 | 1014.3 |
| 20260504021637 | 44 | 60 | 0.0 | 1.7 | 0.00 | 0.00 | 0.00 | 74 | 1014.3 |
| 20260504021133 | 45 | 336 | 0.0 | 1.7 | 0.00 | 0.00 | 0.00 | 71 | 1014.2 |
| 20260504020630 | 44 | 114 | 0.0 | 2.6 | 0.00 | 0.00 | 0.00 | 73 | 1014.2 |
| 20260504020126 | 45 | 28 | 1.7 | 1.7 | 0.00 | 0.00 | 0.00 | 73 | 1014.3 |
| 20260504015623 | 45 | 246 | 0.9 | 1.7 | 0.00 | 0.00 | 0.00 | 71 | 1014.2 |
| 20260504015119 | 44 | 144 | 0.0 | 1.7 | 0.00 | 0.00 | 0.00 | 73 | 1014.1 |
| 20260504014615 | 45 | 45 | 1.7 | 2.6 | 0.00 | 0.00 | 0.00 | 73 | 1014.2 |
| 20260504014113 | 45 | 166 | 0.0 | 2.6 | 0.00 | 0.00 | 0.00 | 73 | 1014.2 |
| 20260504013610 | 45 | 135 | 0.0 | 1.7 | 0.00 | 0.00 | 0.00 | 72 | 1014.1 |
| 20260504013107 | 45 | 62 | 0.0 | 1.7 | 0.00 | 0.00 | 0.00 | 72 | 1014.2 |
| 20260504012604 | 45 | 89 | 0.0 | 2.6 | 0.00 | 0.00 | 0.00 | 70 | 1014.1 |
| 20260504012102 | 46 | 165 | 0.0 | 0.9 | 0.00 | 0.00 | 0.00 | 70 | 1013.9 |
| 20260504011559 | 46 | 218 | 0.0 | 1.7 | 0.00 | 0.00 | 0.00 | 69 | 1013.9 |
| 20260504011055 | 47 | 334 | 1.7 | 2.6 | 0.00 | 0.00 | 0.00 | 66 | 1013.7 |
| 20260504010550 | 48 | 345 | 0.9 | 3.5 | 0.00 | 0.00 | 0.00 | 63 | 1013.8 |
| 20260504010047 | 48 | 18 | 1.7 | 2.6 | 0.00 | 0.00 | 0.00 | 65 | 1013.7 |
| 20260504005543 | 49 | 269 | 0.0 | 2.6 | 0.00 | 0.00 | 0.00 | 60 | 1013.6 |
| 20260504005041 | 50 | 315 | 1.7 | 2.6 | 0.00 | 0.00 | 0.00 | 57 | 1013.8 |
| 20260504004539 | 50 | 49 | 0.9 | 1.7 | 0.00 | 0.00 | 0.00 | 60 | 1013.7 |
| 20260504004036 | 51 | 64 | 0.9 | 1.7 | 0.00 | 0.00 | 0.00 | 55 | 1013.7 |
| 20260504003532 | 51 | 112 | 0.0 | 1.7 | 0.00 | 0.00 | 0.00 | 54 | 1013.8 |
| 20260504003029 | 51 | 70 | 0.0 | 2.6 | 0.00 | 0.00 | 0.00 | 54 | 1013.6 |
| 20260504002525 | 52 | 53 | 1.7 | 1.7 | 0.00 | 0.00 | 0.00 | 53 | 1013.4 |
| 20260504002023 | 53 | 5 | 2.6 | 2.6 | 0.00 | 0.00 | 0.00 | 50 | 1013.5 |
| 20260504001521 | 53 | 359 | 0.9 | 3.5 | 0.00 | 0.00 | 0.00 | 49 | 1013.1 |
| 20260504001016 | 53 | 77 | 0.0 | 2.6 | 0.00 | 0.00 | 0.00 | 51 | 1013.4 |
| 20260504000514 | 54 | 331 | 1.7 | 2.6 | 0.00 | 0.00 | 0.00 | 46 | 1013.3 |
| 20260504000011 | 55 | 96 | 1.7 | 3.5 | 0.00 | 0.00 | 0.00 | 47 | 1013.3 |
| 20260503235509 | 55 | 40 | 0.0 | 4.3 | 0.00 | 0.00 | 0.00 | 46 | 1013.3 |
| 20260503235006 | 56 | 66 | 1.7 | 3.5 | 0.00 | 0.00 | 0.00 | 44 | 1013.1 |
| 20260503234503 | 56 | 128 | 0.9 | 5.2 | 0.00 | 0.00 | 0.00 | 43 | 1013.2 |
| 20260503234002 | 57 | 182 | 2.6 | 6.1 | 0.00 | 0.00 | 0.00 | 43 | 1013.2 |
| 20260503233457 | 57 | 356 | 1.7 | 4.3 | 0.00 | 0.00 | 0.00 | 44 | 1013.1 |
| 20260503232954 | 57 | 51 | 1.7 | 5.2 | 0.00 | 0.00 | 0.00 | 43 | 1013.0 |
| 20260503232451 | 57 | 197 | 2.6 | 4.3 | 0.00 | 0.00 | 0.00 | 41 | 1012.8 |
| 20260503231949 | 57 | 351 | 2.6 | 7.0 | 0.00 | 0.00 | 0.00 | 42 | 1013.0 |
| 20260503231446 | 57 | 7 | 0.9 | 6.1 | 0.00 | 0.00 | 0.00 | 41 | 1012.9 |
| 20260503230942 | 58 | 53 | 2.6 | 6.1 | 0.00 | 0.00 | 0.00 | 41 | 1013.1 |
| 20260503230439 | 58 | 182 | 2.6 | 7.0 | 0.00 | 0.00 | 0.00 | 41 | 1013.0 |
| 20260503225937 | 58 | 98 | 4.3 | 11.3 | 0.00 | 0.00 | 0.00 | 41 | 1013.0 |
| 20260503225433 | 59 | 5 | 0.9 | 4.3 | 0.00 | 0.00 | 0.00 | 40 | 1012.7 |
| 20260503224929 | 60 | 297 | 2.6 | 9.6 | 0.00 | 0.00 | 0.00 | 39 | 1012.8 |
| 20260503224426 | 61 | 265 | 4.3 | 16.5 | 0.00 | 0.00 | 0.00 | 37 | 1012.9 |
| 20260503223924 | 60 | 138 | 0.9 | 4.3 | 0.00 | 0.00 | 0.00 | 40 | 1012.9 |
| 20260503223422 | 59 | 274 | 1.7 | 14.8 | 0.00 | 0.00 | 0.00 | 40 | 1012.8 |
| 20260503222917 | 59 | 81 | 0.9 | 9.6 | 0.00 | 0.00 | 0.00 | 39 | 1013.0 |
| 20260503222415 | 60 | 304 | 5.2 | 6.1 | 0.00 | 0.00 | 0.00 | 38 | 1012.7 |
| 20260503221914 | 59 | 306 | 7.8 | 8.7 | 0.00 | 0.00 | 0.00 | 38 | 1012.9 |
| 20260503221412 | 59 | 16 | 2.6 | 13.0 | 0.00 | 0.00 | 0.00 | 39 | 1012.8 |
| 20260503220908 | 61 | 298 | 5.2 | 11.3 | 0.00 | 0.00 | 0.00 | 36 | 1012.9 |
| 20260503220404 | 62 | 321 | 3.5 | 13.9 | 0.00 | 0.00 | 0.00 | 37 | 1012.9 |
| 20260503215901 | 62 | 259 | 8.7 | 13.0 | 0.00 | 0.00 | 0.00 | 35 | 1012.9 |
| 20260503215358 | 61 | 35 | 2.6 | 9.6 | 0.00 | 0.00 | 0.00 | 37 | 1012.8 |
| 20260503214856 | 61 | 295 | 4.3 | 10.4 | 0.00 | 0.00 | 0.00 | 37 | 1013.0 |
| 20260503214353 | 61 | 27 | 1.7 | 13.9 | 0.00 | 0.00 | 0.00 | 38 | 1012.8 |
| 20260503213850 | 61 | 242 | 10.4 | 16.5 | 0.00 | 0.00 | 0.00 | 36 | 1012.7 |
| 20260503213348 | 63 | 339 | 4.3 | 14.8 | 0.00 | 0.00 | 0.00 | 35 | 1012.7 |
| 20260503212845 | 63 | 11 | 2.6 | 7.8 | 0.00 | 0.00 | 0.00 | 36 | 1012.8 |
| 20260503212343 | 62 | 230 | 1.7 | 7.0 | 0.00 | 0.00 | 0.00 | 35 | 1012.4 |
| 20260503211839 | 61 | 294 | 3.5 | 8.7 | 0.00 | 0.00 | 0.00 | 35 | 1012.7 |
| 20260503211336 | 59 | 28 | 1.7 | 8.7 | 0.00 | 0.00 | 0.00 | 38 | 1012.4 |
| 20260503210831 | 59 | 72 | 4.3 | 7.8 | 0.00 | 0.00 | 0.00 | 38 | 1012.6 |
| 20260503210329 | 59 | 277 | 1.7 | 8.7 | 0.00 | 0.00 | 0.00 | 37 | 1012.6 |
| 20260503205824 | 59 | 33 | 0.9 | 8.7 | 0.00 | 0.00 | 0.00 | 40 | 1012.6 |
| 20260503205321 | 59 | 283 | 3.5 | 13.0 | 0.00 | 0.00 | 0.00 | 36 | 1012.7 |
| 20260503204817 | 58 | 347 | 3.5 | 9.6 | 0.00 | 0.00 | 0.00 | 37 | 1012.6 |
| 20260503204315 | 58 | 261 | 9.6 | 11.3 | 0.00 | 0.00 | 0.00 | 36 | 1012.6 |
| 20260503203812 | 58 | 56 | 6.1 | 11.3 | 0.00 | 0.00 | 0.00 | 37 | 1012.5 |
| 20260503203309 | 58 | 264 | 6.1 | 13.0 | 0.00 | 0.00 | 0.00 | 36 | 1012.7 |
| 20260503202806 | 58 | 199 | 1.7 | 14.8 | 0.00 | 0.00 | 0.00 | 37 | 1012.7 |
| 20260503202304 | 58 | 291 | 3.5 | 17.4 | 0.00 | 0.00 | 0.00 | 35 | 1012.5 |
| 20260503201802 | 59 | 43 | 4.3 | 8.7 | 0.00 | 0.00 | 0.00 | 37 | 1012.6 |
| 20260503201259 | 60 | 169 | 2.6 | 13.9 | 0.00 | 0.00 | 0.00 | 36 | 1012.7 |
| 20260503200756 | 59 | 297 | 7.8 | 11.3 | 0.00 | 0.00 | 0.00 | 35 | 1012.6 |
| 20260503200251 | 59 | 230 | 13.9 | 14.8 | 0.00 | 0.00 | 0.00 | 34 | 1012.9 |
| 20260503195743 | 59 | 323 | 4.3 | 14.8 | 0.00 | 0.00 | 0.00 | 35 | 1012.9 |
| 20260503195240 | 59 | 48 | 4.3 | 20.0 | 0.00 | 0.00 | 0.00 | 36 | 1013.0 |
| 20260503194738 | 60 | 257 | 5.2 | 12.2 | 0.00 | 0.00 | 0.00 | 35 | 1012.6 |
| 20260503194233 | 60 | 11 | 12.2 | 19.1 | 0.00 | 0.00 | 0.00 | 34 | 1012.9 |
| 20260503193729 | 61 | 325 | 3.5 | 8.7 | 0.00 | 0.00 | 0.00 | 33 | 1013.0 |
| 20260503193226 | 59 | 248 | 3.5 | 13.9 | 0.00 | 0.00 | 0.00 | 34 | 1013.1 |
| 20260503192721 | 59 | 331 | 3.5 | 7.8 | 0.00 | 0.00 | 0.00 | 36 | 1013.2 |
| 20260503192217 | 59 | 71 | 3.5 | 17.4 | 0.00 | 0.00 | 0.00 | 35 | 1013.1 |
| 20260503191714 | 59 | 101 | 6.1 | 19.1 | 0.00 | 0.00 | 0.00 | 36 | 1013.3 |
| 20260503191211 | 60 | 297 | 3.5 | 8.7 | 0.00 | 0.00 | 0.00 | 32 | 1013.4 |
| 20260503190708 | 60 | 332 | 2.6 | 15.6 | 0.00 | 0.00 | 0.00 | 33 | 1013.4 |
| 20260503190204 | 60 | 255 | 5.2 | 8.7 | 0.00 | 0.00 | 0.00 | 32 | 1013.3 |
| 20260503185702 | 59 | 72 | 3.5 | 10.4 | 0.00 | 0.00 | 0.00 | 36 | 1013.6 |
| 20260503185156 | 60 | 273 | 8.7 | 20.0 | 0.00 | 0.00 | 0.00 | 35 | 1013.5 |
| 20260503184651 | 60 | 296 | 5.2 | 18.2 | 0.00 | 0.00 | 0.00 | 35 | 1013.5 |
| 20260503184148 | 59 | 311 | 4.3 | 19.1 | 0.00 | 0.00 | 0.00 | 32 | 1013.7 |
| 20260503183644 | 60 | 347 | 3.5 | 6.1 | 0.00 | 0.00 | 0.00 | 36 | 1014.0 |
| 20260503183142 | 59 | 303 | 4.3 | 7.8 | 0.00 | 0.00 | 0.00 | 35 | 1014.0 |
| 20260503182640 | 59 | 281 | 4.3 | 14.8 | 0.00 | 0.00 | 0.00 | 34 | 1014.1 |
| 20260503182139 | 59 | 13 | 4.3 | 11.3 | 0.00 | 0.00 | 0.00 | 39 | 1014.0 |
| 20260503181635 | 57 | 297 | 4.3 | 20.0 | 0.00 | 0.00 | 0.00 | 36 | 1014.1 |
| 20260503181132 | 60 | 330 | 13.9 | 14.8 | 0.00 | 0.00 | 0.00 | 35 | 1014.2 |
| 20260503180629 | 58 | 109 | 6.1 | 20.9 | 0.00 | 0.00 | 0.00 | 38 | 1014.1 |
| 20260503180127 | 57 | 161 | 3.5 | 9.6 | 0.00 | 0.00 | 0.00 | 38 | 1014.3 |
| 20260503175623 | 58 | 19 | 2.6 | 7.0 | 0.00 | 0.00 | 0.00 | 37 | 1014.2 |
| 20260503175120 | 56 | 341 | 4.3 | 9.6 | 0.00 | 0.00 | 0.00 | 40 | 1014.3 |
| 20260503174617 | 56 | 63 | 6.1 | 13.0 | 0.00 | 0.00 | 0.00 | 39 | 1014.6 |
| 20260503174114 | 55 | 298 | 10.4 | 25.2 | 0.00 | 0.00 | 0.00 | 37 | 1014.6 |
| 20260503173609 | 57 | 36 | 1.7 | 9.6 | 0.00 | 0.00 | 0.00 | 40 | 1014.7 |
| 20260503173105 | 54 | 37 | 6.1 | 12.2 | 0.00 | 0.00 | 0.00 | 42 | 1014.7 |
| 20260503172602 | 54 | 87 | 6.1 | 12.2 | 0.00 | 0.00 | 0.00 | 41 | 1014.8 |
| 20260503172059 | 54 | 24 | 5.2 | 10.4 | 0.00 | 0.00 | 0.00 | 42 | 1014.9 |
| 20260503171550 | 52 | 194 | 2.6 | 12.2 | 0.00 | 0.00 | 0.00 | 42 | 1015.2 |
| 20260503171048 | 53 | 53 | 7.0 | 20.9 | 0.00 | 0.00 | 0.00 | 41 | 1015.2 |
| 20260503170544 | 54 | 27 | 3.5 | 15.6 | 0.00 | 0.00 | 0.00 | 40 | 1015.2 |
| 20260503150937 | 50 | 73 | 3.5 | 17.4 | 0.00 | 0.00 | 0.00 | 45 | 1015.9 |
| 20260503150433 | 51 | 30 | 9.6 | 12.2 | 0.00 | 0.00 | 0.00 | 42 | 1015.8 |
| 20260503131326 | 46 | 293 | 2.6 | 5.2 | 0.00 | 0.00 | 0.00 | 58 | 1016.3 |
| 20260503130824 | 46 | 71 | 4.3 | 5.2 | 0.00 | 0.00 | 0.00 | 60 | 1016.3 |
| 20260503130321 | 46 | 300 | 5.2 | 11.3 | 0.00 | 0.00 | 0.00 | 60 | 1016.4 |